Weather History for KPNM - May, 2013

Change the Weather History Date:

Saturday, May 4, 2013

  Actual Average Record
Temperature  
Mean Temperature 37 °F -  
Max Temperature 42 °F 63 °F 84 °F (2000)
Min Temperature 32 °F 39 °F 26 °F (2005)
Degree Days  
Heating Degree Days 28    
Moisture  
Dew Point 33 °F    
Average Humidity 87    
Maximum Humidity 93    
Minimum Humidity 81    
Precipitation  
Precipitation 0.08 in - - ()
Sea Level Pressure  
Sea Level Pressure 30.18 in    
Wind  
Wind Speed 10 mph (NNE)    
Max Wind Speed 15 mph    
Max Gust Speed 20 mph    
Visibility 9 miles    
Events Rain    
Averages and records for this station are not official NWS values.
T = Trace of Precipitation, MM = Missing Value Source: NWS Daily Summary

Daily Weather History Graph

Daily Weather History Graph

Search for Another Location

Airport or City:

Trip Planner

Search our weather history database for the weather conditions in past years. The results will help you decide how hot, cold, wet, or windy it might be!

Date:

Astronomy

May. 04, 2013 Rise Set
Actual Time 5:57 AM CDT 8:25 PM CDT
Civil Twilight 5:24 AM CDT 8:58 PM CDT
Nautical Twilight 4:42 AM CDT 9:40 PM CDT
Astronomical Twilight 3:55 AM CDT 10:28 PM CDT
Moon 3:12 AM CDT (5/4) 3:09 PM CDT (5/4)
Length of Visible Light 15h 34m
Length of Day
14h 27m
Waning Crescent, 27% of the Moon is Illuminated
May 4
Waning Crescent
May 9
New
May 17
First Quarter
May 24
Full
May 31
Last Quarter

Hourly Weather History & Observations

Time (CDT) Temp. Windchill Dew Point Humidity Pressure Visibility Wind Dir Wind Speed Gust Speed Precip Events Conditions
12:11 AM 32.0 °F 22.5 °F 28.4 °F 87% 30.19 in 10.0 mi NNE 12.7 mph - N/A   Overcast
12:31 AM 32.0 °F 23.0 °F 28.4 °F 87% 30.19 in 10.0 mi North 11.5 mph - N/A   Overcast
12:52 AM 32.0 °F 25.6 °F 28.4 °F 87% 30.19 in 10.0 mi NNE 6.9 mph - N/A   Overcast
1:11 AM 32.0 °F 23.0 °F 28.4 °F 87% 30.18 in 10.0 mi North 11.5 mph - N/A   Overcast
1:31 AM 32.0 °F 23.6 °F 28.4 °F 87% 30.18 in 10.0 mi North 10.4 mph - N/A   Overcast
1:51 AM 32.0 °F 23.6 °F 28.4 °F 87% 30.18 in 10.0 mi North 10.4 mph - N/A   Overcast
2:11 AM 32.0 °F 24.8 °F 28.4 °F 87% 30.17 in 10.0 mi NNE 8.1 mph - N/A   Overcast
2:32 AM 32.0 °F 24.8 °F 28.4 °F 87% 30.16 in 10.0 mi North 8.1 mph - N/A   Overcast
2:51 AM 32.0 °F 23.0 °F 28.4 °F 87% 30.16 in 10.0 mi North 11.5 mph - N/A   Overcast
3:11 AM 32.0 °F 24.2 °F 28.4 °F 87% 30.16 in 10.0 mi North 9.2 mph - N/A   Overcast
3:32 AM 32.0 °F 24.2 °F 28.4 °F 87% 30.16 in 10.0 mi North 9.2 mph - N/A   Overcast
3:51 AM 32.0 °F 23.0 °F 28.4 °F 87% 30.16 in 5.0 mi North 11.5 mph - 0.01 in   Overcast
4:11 AM 32.0 °F 24.2 °F 28.4 °F 87% 30.16 in 2.5 mi NNE 9.2 mph - N/A   Overcast
4:31 AM 32.0 °F 24.2 °F 30.2 °F 93% 30.16 in 5.0 mi NNE 9.2 mph - N/A   Overcast
4:51 AM 32.0 °F 23.0 °F 30.2 °F 93% 30.17 in 4.0 mi NNE 11.5 mph - N/A   Overcast
5:11 AM 32.0 °F 23.0 °F 30.2 °F 93% 30.16 in 4.0 mi NNE 11.5 mph 16.1 mph 0.01 in   Overcast
5:31 AM 32.0 °F 23.6 °F 30.2 °F 93% 30.16 in 7.0 mi North 10.4 mph - 0.01 in   Overcast
5:51 AM 32.0 °F 24.8 °F 30.2 °F 93% 30.16 in 5.0 mi North 8.1 mph - 0.01 in   Overcast
6:11 AM 32.0 °F 22.1 °F 30.2 °F 93% 30.16 in 7.0 mi North 13.8 mph 19.6 mph 0.01 in   Overcast
6:31 AM 32.0 °F 23.0 °F 30.2 °F 93% 30.16 in 10.0 mi North 11.5 mph 18.4 mph 0.01 in   Overcast
6:51 AM 32.0 °F 21.6 °F 30.2 °F 93% 30.16 in 10.0 mi NNE 15.0 mph - 0.01 in   Overcast
7:11 AM 32.0 °F 23.6 °F 30.2 °F 93% 30.16 in 10.0 mi North 10.4 mph - N/A   Overcast
7:31 AM 32.0 °F 22.5 °F 30.2 °F 93% 30.16 in 5.0 mi NNE 12.7 mph - N/A   Overcast
7:51 AM 32.0 °F 23.0 °F 30.2 °F 93% 30.16 in 4.0 mi NNE 11.5 mph - N/A   Overcast
8:11 AM 32.0 °F 23.6 °F 30.2 °F 93% 30.16 in 5.0 mi NNE 10.4 mph - 0.01 in   Overcast
8:31 AM 32.0 °F 24.2 °F 30.2 °F 93% 30.16 in 5.0 mi NNE 9.2 mph - 0.02 in   Overcast
8:52 AM 33.8 °F 26.4 °F 30.2 °F 87% 30.17 in 7.0 mi NNE 9.2 mph - 0.04 in   Overcast
9:11 AM 33.8 °F 24.8 °F 30.2 °F 87% 30.17 in 7.0 mi NNE 12.7 mph - N/A   Overcast
9:31 AM 33.8 °F 24.8 °F 30.2 °F 87% 30.17 in 10.0 mi NNE 12.7 mph - 0.01 in Rain Light Rain
9:52 AM 33.8 °F 25.8 °F 32.0 °F 93% 30.17 in 10.0 mi NNE 10.4 mph - 0.01 in   Light Drizzle
10:11 AM 35.6 °F 27.5 °F 32.0 °F 87% 30.17 in 10.0 mi North 11.5 mph 16.1 mph N/A   Light Drizzle
10:31 AM 35.6 °F 28.0 °F 33.8 °F 93% 30.17 in 10.0 mi NNE 10.4 mph - N/A   Overcast
10:51 AM 35.6 °F 28.0 °F 33.8 °F 93% 30.18 in 10.0 mi NNE 10.4 mph - N/A   Overcast
11:11 AM 35.6 °F 28.0 °F 33.8 °F 93% 30.19 in 10.0 mi NNE 10.4 mph - N/A   Overcast
11:31 AM 35.6 °F 27.5 °F 33.8 °F 93% 30.19 in 5.0 mi NNE 11.5 mph 17.3 mph N/A   Overcast
11:51 AM 37.4 °F 30.3 °F 33.8 °F 87% 30.18 in 4.0 mi NNE 10.4 mph - N/A   Overcast
12:11 PM 37.4 °F 29.8 °F 33.8 °F 87% 30.17 in 7.0 mi NNE 11.5 mph - N/A   Overcast
12:36 PM 37.4 °F 30.3 °F 35.6 °F 93% 30.17 in 10.0 mi North 10.4 mph - N/A   Overcast
12:51 PM 39.2 °F 32.0 °F 35.6 °F 87% 30.17 in 10.0 mi North 11.5 mph - N/A   Overcast
1:11 PM 39.2 °F 31.2 °F 35.6 °F 87% 30.17 in 10.0 mi North 13.8 mph - N/A   Overcast
1:31 PM 39.2 °F 33.0 °F 35.6 °F 87% 30.17 in 10.0 mi North 9.2 mph - N/A   Overcast
1:51 PM 39.2 °F 32.5 °F 35.6 °F 87% 30.18 in 10.0 mi NNE 10.4 mph - N/A   Overcast
2:11 PM 39.2 °F 32.5 °F 35.6 °F 87% 30.17 in 10.0 mi NNE 10.4 mph - N/A   Overcast
2:31 PM 39.2 °F 33.6 °F 35.6 °F 87% 30.17 in 10.0 mi NNE 8.1 mph - N/A   Overcast
2:51 PM 41.0 °F 34.7 °F 35.6 °F 81% 30.16 in 10.0 mi North 10.4 mph - N/A   Overcast
3:11 PM 41.0 °F 35.8 °F 35.6 °F 81% 30.17 in 10.0 mi North 8.1 mph - N/A   Overcast
3:31 PM 41.0 °F 37.1 °F 35.6 °F 81% 30.18 in 10.0 mi NNE 5.8 mph - N/A   Overcast
3:51 PM 41.0 °F 35.2 °F 35.6 °F 81% 30.17 in 10.0 mi North 9.2 mph - N/A   Overcast
4:11 PM 41.0 °F 35.8 °F 37.4 °F 87% 30.17 in 10.0 mi North 8.1 mph - N/A   Overcast
4:31 PM 41.0 °F 35.8 °F 37.4 °F 87% 30.17 in 10.0 mi North 8.1 mph - N/A   Overcast
4:51 PM 41.0 °F 35.2 °F 37.4 °F 87% 30.17 in 10.0 mi NNE 9.2 mph - N/A   Overcast
5:11 PM 42.8 °F 37.5 °F 37.4 °F 81% 30.17 in 10.0 mi NNE 9.2 mph - N/A   Overcast
5:31 PM 42.8 °F 38.0 °F 37.4 °F 81% 30.17 in 10.0 mi NNE 8.1 mph - N/A   Overcast
5:51 PM 42.8 °F 37.5 °F 37.4 °F 81% 30.17 in 10.0 mi North 9.2 mph - N/A   Overcast
6:11 PM 42.8 °F 37.0 °F 37.4 °F 81% 30.18 in 10.0 mi North 10.4 mph - N/A   Overcast
6:32 PM 42.8 °F 37.5 °F 37.4 °F 81% 30.18 in 10.0 mi NNE 9.2 mph - N/A   Overcast
6:51 PM 42.8 °F 36.6 °F 37.4 °F 81% 30.18 in 10.0 mi North 11.5 mph - N/A   Overcast
7:11 PM 41.0 °F 35.2 °F 35.6 °F 81% 30.18 in 10.0 mi North 9.2 mph - N/A   Overcast
7:32 PM 41.0 °F 35.8 °F 35.6 °F 81% 30.19 in 10.0 mi North 8.1 mph - N/A   Overcast
7:51 PM 41.0 °F 35.2 °F 35.6 °F 81% 30.19 in 10.0 mi NNE 9.2 mph - N/A   Overcast
8:11 PM 41.0 °F 36.4 °F 35.6 °F 81% 30.19 in 10.0 mi North 6.9 mph - N/A   Overcast
8:32 PM 41.0 °F 35.8 °F 35.6 °F 81% 30.19 in 10.0 mi NNE 8.1 mph - N/A   Overcast
8:51 PM 39.2 °F 33.0 °F 35.6 °F 87% 30.19 in 10.0 mi NNE 9.2 mph - N/A   Overcast
9:11 PM 39.2 °F 33.0 °F 35.6 °F 87% 30.19 in 10.0 mi North 9.2 mph - N/A   Overcast
9:31 PM 39.2 °F 33.6 °F 33.8 °F 81% 30.20 in 10.0 mi NNE 8.1 mph - N/A   Overcast
9:51 PM 39.2 °F 33.6 °F 33.8 °F 81% 30.20 in 10.0 mi NNE 8.1 mph - N/A   Overcast
10:12 PM 37.4 °F 29.3 °F 33.8 °F 87% 30.20 in 10.0 mi NNE 12.7 mph - N/A   Overcast
10:31 PM 37.4 °F 30.8 °F 33.8 °F 87% 30.20 in 10.0 mi NE 9.2 mph - N/A   Overcast
10:51 PM 37.4 °F 30.8 °F 33.8 °F 87% 30.20 in 10.0 mi NNE 9.2 mph - N/A   Overcast
11:12 PM 37.4 °F 31.4 °F 33.8 °F 87% 30.20 in 10.0 mi NNE 8.1 mph - N/A   Overcast
11:31 PM 37.4 °F 30.8 °F 33.8 °F 87% 30.20 in 10.0 mi NE 9.2 mph - N/A   Overcast
11:51 PM 37.4 °F 32.1 °F 33.8 °F 87% 30.19 in 10.0 mi NNE 6.9 mph - N/A   Overcast